www.pogodaiklimat.ru

ПОГОДА в Элизабет-Сити, NC

  • Прогноз погоды в Элизабет-Сити
  • Монитор погоды в Элизабет-Сити
  • Климат в Элизабет-Сити

АРХИВ ПОГОДЫ в Элизабет-Сити

Время (UTC), дата Ветер
(напр.,м/с)
 
Видим.   Явления Облачность Т
(С)
Тd
(С)
f
(%)
Тe
(С)
Тes
(С)
Комфортность

P
(гПа)

Po
(гПа)
Тmin
(С)
Tmax
(С)
R
(мм)
SD
(см)
21:54 22.03 З  16 км    5/0 3300 м
[средняя] 
+12.8  0.0  41  +11  +11    1006.5  1006.3         
22:54 22.03 З  16 км    8/0 3000 м
[средняя] 
+13.3  +0.6  42  +11  +11    1007.2  1006.6  +12.8  +17.2     
23:50 22.03 СЗ  9
{17} 
16 км    5/0 2400 м
[средняя] 
+11.0  +2.0  54  +7  +7      1009.3         
23:54 22.03 СЗ  9
{14} 
16 км    5/0 2400 м
[средняя] 
+10.6  +1.7  54  +7  +7    1010.0  1009.7         
00:54 23.03 СЗ  9
{13} 
16 км    2/0 2400 м
[средняя] 
+9.4  0.0  52  +5  +5    1011.7  1011.4         
01:54 23.03 СЗ  7
{13} 
16 км    ясно  +8.9  -1.7  47  +5  +5    1012.6  1012.1         
02:54 23.03 З  16 км    ясно  +7.2  -1.7  53  +3  +3    1013.6  1013.1         
03:54 23.03 СЗ  16 км    ясно  +7.2  -1.7  53  +3  +3    1014.1  1013.7         
04:54 23.03 З  16 км    ясно  +5.6  -2.2  57  +1  +1    1014.6  1014.1  +5.6  +13.9     
05:54 23.03 З  16 км    ясно  +5.0  -2.2  60  0  0    1014.5  1014.1         
06:54 23.03 З  16 км    ясно  +5.0  -3.3  55  0  0    1014.6  1014.4         
07:54 23.03 З  16 км    ясно  +5.6  -3.9  50  +2  +2    1015.5  1015.1         
08:54 23.03 З  16 км    ясно  +5.0  -3.3  55  +1  +1    1016.5  1016.1         
09:54 23.03 З  16 км    ясно  +5.0  -3.3  55  0  0    1017.7  1017.1         
10:54 23.03 З  16 км    ясно  +5.6  -3.3  53  +2  +2    1018.9  1018.5  +4.4  +6.1     
11:54 23.03 З  16 км    ясно  +7.8  -2.8  47  +4  +4    1019.9  1019.5         
12:54 23.03 З  7
{13} 
16 км    ясно  +10.0  -3.3  39  +7  +7    1020.4  1020.2         
13:54 23.03 СЗ  16 км    ясно  +11.1  -3.9  35  +8  +9    1021.0  1020.5         
14:54 23.03 З  7
{11} 
16 км    ясно  +12.8  -3.9  31  +10  +12    1020.9  1020.5         
15:54 23.03 З  8
{12} 
16 км    ясно  +13.3  -4.4  29  +11  +12    1020.8  1020.5         
16:54 23.03 З  8
{12} 
16 км    ясно  +15.0  -5.0  25  +13  +15    1020.6  1020.2  +5.6  +15.0     
17:54 23.03 СЗ  16 км    ясно  +15.6  -5.0  24  +14  +17    1020.3  1019.8         
18:54 23.03 З  8
{11} 
16 км    ясно  +16.7  -4.4  23  +15  +17    1020.2  1019.8         
19:54 23.03 З  7
{10} 
16 км    ясно  +16.7  -5.0  22  +15  +17    1020.6  1020.2         
20:54 23.03 З  16 км    ясно  +15.6  -6.1  22  +14  +16    1021.1  1020.9         
21:54 23.03 З  16 км    ясно  +13.9  -4.4  28  +12  +13    1022.0  1021.5         
22:54 23.03 З  16 км    ясно  +11.1  -4.4  33  +10  +10    1022.9  1022.5  +10.0  +16.7     
23:54 23.03 З  16 км    ясно  +6.1  -1.7  57  +4  +4    1023.9  1023.6         
00:54 24.03 З  16 км    ясно  +6.1  -3.3  51  +3  +3    1024.8  1024.6         
01:54 24.03   16 км    ясно  +8.3  -3.3  44  +8  +8    1025.4  1024.9         
02:54 24.03   16 км    ясно  +6.1  -1.7  57  +6  +6    1025.7  1025.3         
03:54 24.03   16 км    ясно  +3.9  -1.1  70  +3  +3    1025.8  1025.3         
04:54 24.03   16 км    ясно  +3.9  0.0  76  +3  +3    1026.1  1025.6  +2.2  +12.2     
05:54 24.03   16 км    ясно  +3.3  +0.6  82  +2  +2    1026.0  1025.6         
06:54 24.03   16 км    ясно  +2.8  0.0  82  +2  +2    1026.0  1025.6         
07:54 24.03   16 км    ясно  +2.8  +1.1  89  +2  +2    1026.4  1025.9         
08:54 24.03   16 км    ясно  +1.1  0.0  92  -0  -0    1026.6  1026.3         
09:54 24.03 ЮЗ  16 км    ясно  +0.6  0.0  96  -3  -3    1027.1  1026.6         
10:54 24.03   16 км    ясно  +2.2  +2.2  100  +1  +1    1027.7  1027.3  0.0  +5.0     
11:54 24.03 Ю  16 км    ясно  +10.0  +5.0  71  +8  +9    1028.3  1028.0         
12:54 24.03 ЮВ  16 км    ясно  +12.8  +0.6  43  +11  +14    1028.2  1028.0         
13:54 24.03 ЮВ  16 км    ясно  +14.4  -3.3  29  +13  +18    1027.8  1027.3         
14:54 24.03 ЮВ  16 км    ясно  +15.6  -4.4  25  +15  +21    1027.1  1026.6         
15:54 24.03 Ю  16 км    ясно  +16.7  -3.3  25  +16  +23    1026.6  1026.3         
16:54 24.03 ЮВ  4
{8} 
16 км    ясно  +17.2  -1.7  28  +17  +24    1025.4  1024.9  +2.2  +17.8     
17:54 24.03 Ю  16 км    ясно  +18.9  -0.6  27  +19  +28    1024.3  1023.9         
18:54 24.03 ЮВ  16 км    ясно  +17.8  +3.3  38  +18  +25    1023.3  1022.9         
19:54 24.03 Ю  16 км    ясно  +19.4  +0.6  28  +19  +23    1022.3  1021.9         

 

Местоположение метеостанции Elizabeth City Coast Guard Air Station: широта 36.2631 долгота -76.1828 высота над уровнем моря 3 м.

В архиве по умолчанию представлена погода в Элизабет-Сити за последние 1-2 суток. Обновление информации о фактической погоде в базе происходит ежечасно! Архивные данные за месяц целиком и за предыдущие месяцы Вы можете получить, выбрав интересующий диапазон дат из раскрывающегося списка и нажав кнопку "Ввод!".

Внимание! Архив погоды МЕТАР в базе сайта хранится не более 60 дней. Нет смысла пытаться выбрать более раннюю дату.

Внимание! Время в таблицах - всемирное. Для получения местного времени необходимо прибавить поправку, которая в Элизабет-Сити равна -5 ч.

Ветер - указаны скорость ветра в м/с и направление, откуда дует ветер: С - северный, СВ - северо-восточный, В - восточный, ЮВ - юго-восточный, Ю - южный, ЮЗ - юго-западный, З - западный, СЗ - северо-западный.
Видимость - горизонтальная дальность видимости в метрах или километрах. При видимости от 1 до 10 км при отсутствии осадков обычно наблюдается дымка, при ухудшении видимости до 1 км и менее - туман. В сухую погоду видимость может ухудшаться дымом, пылью или мглою.
Атмосферные явления - указаны явления, наблюдавшиеся в указанный момент времени.
Облачность - указаны через наклонную черту верхняя и нижняя облачность в баллах и высота нижней границы облаков в метрах. Внимание: облачность, как и прочие метеорологические величины в США измеряются автоматическими метеостанциями. Указанные значения в баллах носят условный характер и показывают процент времени, в течение которого, в среднем, лазерный луч высотомера отражался от облаков обратно.
T - Температура воздуха - температура, измеренная на высоте 2 м над землей.
Td - Температура точки росы - температура, при понижении до которой содержащийся в воздухе водяной пар достигнет насыщения.
f - Относительная влажность воздуха - влажноcть воздуха, измеренная на высоте 2 м над землей.
Te - Эффективная температура - температура, которую ощущает одетый по сезону человек в тени. Характеристика душности погоды. При расчете учитывается влияние влажности воздуха и скорости ветра на теплоощущения человека.
Tes - Эффективная температура на солнце - температура, которую ощущает человек, с поправкой на солнечный нагрев. Характеристика знойности погоды. Зависит от высоты солнца над горизонтом, облачности и скорости ветра. Ночью, в пасмурную погоду, а также при ветре 12 м/с и более поправка равна нулю.
P - Атмосферное давление - приведенное к уровню моря атмосферное давление.
Po - Атмосферное давление - измеренное на уровне метеостанции атмосферное давление.
Tmin - Минимальная температура - минимум температуры воздуха на высоте 2 м над землей.
Tmax - Максимальная температура - максимум температуры воздуха на высоте 2 м над землей.
R - Количество осадков - Количество выпавших осадков за 3 или 6 часов, мм.
SD - Снежный покров - Высота снежного покрова, см.